Location: Newark
(42.8481°N, 0.4872°E)
Time: 17:17:54
(UTC+00:00)

Vanguard 2 - Pass Details

Date: 01 November 2020
Orbit: 554 x 2937 km, 32.9° (Epoch: 27 November)

Event Time Altitude Azimuth Distance (km) Brightness Sun altitude
Rises 23:26:12 0° 275° (W) 6,130 12.2 -61.8°
Reaches altitude 10° 23:30:17 10° 269° (W) 5,352 11.8 -61.9°
Enters shadow 23:30:47 11° 268° (W) 5,263 11.7 -61.9°
Maximum altitude 23:45:08 41° 208° (SSW) 3,807 - -62.0°
Drops below altitude 10° 00:00:20 10° 146° (SE) 5,438 - -61.7°
Sets 00:04:34 0° 139° (SE) 6,230 - -61.5°
